1485684000.27,20705,11.88,73838.3,4.63,-33.95,-34.19,0,*7F
1485684001.52,20706,11.81,73836.8,4.65,-33.73,-33.89,0,*7C
1485684002.76,20707,11.88,73836.0,4.63,-33.55,-33.61,0,*79
1485684004.01,20708,11.81,73834.3,4.63,-33.89,-34.13,0,*75
1485684005.29,20709,11.81,73834.3,4.63,-34.53,-34.83,0,*7D
1485684006.51,20710,11.81,73836.3,4.65,-33.89,-34.07,0,*7F
1485684007.78,20711,11.81,73832.0,4.63,-33.61,-33.77,0,*7E
1485684009.05,20712,11.88,73838.3,4.63,-33.61,-33.77,0,*7D
1485684010.33,20713,11.81,73836.8,4.63,-33.61,-33.77,0,*7C
1485684011.57,20714,11.81,73834.5,4.65,-33.61,-33.77,0,*7D
1485684012.79,20715,11.81,73834.3,4.65,-33.37,-33.61,0,*78
1485684014.07,20716,11.81,73832.8,4.63,-33.09,-33.27,0,*72
1485684015.32,20717,11.88,73838.3,4.65,-33.43,-33.61,0,*79
1485684016.59,20718,11.88,73836.0,4.63,-33.61,-33.73,0,*73
1485684017.8,20719,11.88,73838.3,4.65,-33.95,-34.19,0,*74
1485684019.04,20720,11.88,73834.5,4.65,-33.43,-33.61,0,*7D
1485684020.29,20721,11.88,73836.3,4.65,-33.27,-33.61,0,*7E
1485684021.51,20722,11.88,73836.0,4.65,-33.77,-34.13,0,*7A
1485684022.73,20723,11.81,73832.3,4.65,-33.55,-33.73,0,*7A
1485684023.98,20724,11.81,73832.3,4.65,-33.73,-33.89,0,*7C
1485684025.2,20725,11.81,73834.3,4.65,-34.07,-34.31,0,*7D
1485684026.45,20726,11.81,73832.0,4.67,-33.89,-34.07,0,*78
1485684027.69,20727,11.88,73834.8,4.65,-33.89,-34.19,0,*74
1485684028.93,20728,11.81,73832.5,4.65,-33.43,-33.61,0,*75
1485684030.15,20729,11.81,73834.3,4.65,-33.09,-33.37,0,*79
1485684031.41,20730,11.81,73832.0,4.67,-33.49,-33.67,0,*72
1485684032.66,20731,11.88,73834.8,4.67,-33.67,-33.73,0,*7A
1485684033.9,20732,11.88,73836.0,4.67,-34.13,-34.47,0,*7D
1485684035.14,20733,11.88,73836.8,4.67,-33.89,-34.07,0,*7C
1485684036.34,20734,11.88,73836.3,4.69,-33.67,-33.83,0,*7E
1485684037.54,20735,11.81,73834.0,4.69,-33.67,-33.83,0,*7F
1485684038.8,20736,11.88,73836.5,4.67,-33.83,-34.01,0,*75
1485684040.02,20737,11.81,73834.0,4.67,-33.55,-33.83,0,*72
1485684041.24,20738,11.88,73834.0,4.69,-33.61,-33.83,0,*74
1485684042.46,20739,11.88,73838.0,4.69,-33.55,-33.73,0,*7D
1485684043.69,20740,11.88,73836.5,4.67,-33.67,-33.83,0,*73
1485684044.93,20741,11.81,73832.8,4.69,-33.61,-33.77,0,*71
1485684046.18,20742,11.88,73832.0,4.69,-33.77,-34.01,0,*73
1485684047.42,20743,11.81,73834.3,4.69,-33.49,-33.67,0,*78
1485684048.67,20744,11.88,73834.5,4.67,-33.73,-34.07,0,*79
1485684049.9,20745,11.81,73832.5,4.69,-33.49,-33.83,0,*74
1485684051.11,20746,11.81,73832.0,4.69,-33.61,-33.95,0,*7A
1485684052.34,20747,11.88,73836.0,4.73,-33.77,-34.13,0,*7E
1485684053.58,20748,11.81,73834.0,4.73,-33.43,-33.77,0,*73
1485684054.84,20749,11.81,73834.8,4.69,-33.49,-33.77,0,*73
1485684056.06,20750,11.88,73836.0,4.69,-33.73,-33.83,0,*79
1485684057.31,20751,11.88,73834.5,4.73,-33.61,-33.77,0,*7B
1485684058.53,20752,11.88,73838.3,4.73,-33.55,-33.73,0,*7B
1485684059.76,20753,11.88,73834.8,4.73,-33.37,-33.73,0,*7E
1485684061.01,20754,11.88,73836.8,4.73,-33.77,-34.01,0,*7F
1485684062.26,20755,11.88,73836.3,4.73,-33.61,-33.89,0,*7E
1485684063.5,20756,11.88,73834.8,4.73,-33.61,-33.89,0,*7D
1485684064.72,20757,11.88,73836.8,4.73,-33.89,-34.13,0,*7E
1485684065.95,20758,11.81,73834.0,4.73,-33.55,-33.73,0,*71
1485684067.17,20759,11.88,73832.8,4.73,-33.73,-34.13,0,*75
1485684068.42,20760,11.81,73834.8,4.73,-33.43,-33.61,0,*7E
1485684069.67,20761,11.81,73834.8,4.73,-33.27,-33.43,0,*7D
1485684070.92,20762,11.88,73832.3,4.73,-33.27,-33.61,0,*7E
1485684072.16,20763,11.88,73832.0,4.73,-33.89,-34.31,0,*79
1485684073.37,20764,11.81,73834.8,4.73,-33.95,-34.31,0,*73
1485684074.63,20765,11.88,73834.8,4.73,-34.35,-34.53,0,*7B
1485684075.88,20766,11.88,73834.0,4.73,-33.77,-34.01,0,*7E
1485684077.1,20767,11.88,73838.0,4.73,-33.73,-33.95,0,*71
1485684078.33,20768,11.81,73832.5,4.73,-33.55,-33.89,0,*77
1485684079.55,20769,11.81,73832.5,4.73,-33.55,-33.73,0,*73
1485684080.76,20770,11.88,73836.0,4.73,-33.95,-34.19,0,*7C
1485684081.98,20771,11.88,73834.8,4.73,-33.89,-33.95,0,*73
1485684083.24,20772,11.88,73836.0,4.73,-33.27,-33.43,0,*7F
1485684084.49,20773,11.88,73838.5,4.73,-33.89,-34.01,0,*7B
1485684085.74,20774,11.88,73836.5,4.73,-33.73,-33.89,0,*7E
1485684086.96,20775,11.81,73832.3,4.73,-33.89,-34.13,0,*7E
1485684088.18,20776,11.88,73838.5,4.73,-33.55,-33.73,0,*7D
1485684089.43,20777,11.88,73836.5,4.73,-33.89,-34.01,0,*7F
1485684090.65,20778,11.88,73838.5,4.73,-33.77,-34.13,0,*72
1485684091.88,20779,11.81,73832.3,4.73,-33.77,-34.13,0,*73
1485684093.1,20780,11.88,73836.3,4.73,-33.55,-33.73,0,*74
1485684094.34,20781,11.81,73834.8,4.73,-33.89,-34.19,0,*7F
1485684095.59,20782,11.81,73832.3,4.75,-33.55,-33.73,0,*70
1485684096.84,20783,11.81,73834.5,4.75,-33.43,-33.55,0,*72
1485684098.09,20784,11.88,73832.0,4.75,-33.77,-33.95,0,*7E
1485684099.34,20785,11.88,73836.0,4.75,-34.47,-34.83,0,*7B
1485684100.6,20786,11.81,73834.8,4.75,-34.47,-34.65,0,*70
1485684101.83,20787,11.81,73832.0,4.77,-33.73,-33.95,0,*7B
1485684103.06,20788,11.88,73834.0,4.77,-33.55,-33.73,0,*78
1485684104.34,20789,11.88,73838.3,4.75,-34.53,-34.83,0,*72
1485684105.59,20790,11.81,73834.8,4.75,-34.71,-35.07,0,*77
1485684106.8,20791,11.81,73832.5,4.73,-34.71,-34.89,0,*77
1485684108.05,20792,11.88,73836.5,4.73,-34.65,-34.83,0,*7B
1485684109.28,20793,11.81,73832.5,4.73,-34.65,-34.71,0,*77
1485684110.53,20794,11.81,73832.0,4.73,-34.31,-34.35,0,*71
1485684111.78,20795,11.88,73836.3,4.73,-34.35,-34.53,0,*74
1485684113.03,20796,11.81,73832.0,4.73,-34.01,-34.35,0,*70
1485684114.25,20797,11.88,73834.5,4.73,-34.13,-34.35,0,*72
1485684115.5,20798,11.88,73836.3,4.73,-33.77,-34.01,0,*7F
1485684116.72,20799,11.81,73834.3,4.73,-33.95,-34.31,0,*71
1485684117.94,20800,11.81,73832.5,4.73,-33.73,-33.95,0,*7F
1485684119.2,20801,11.88,73834.0,4.73,-33.73,-34.01,0,*74
1485684120.41,20802,11.88,73834.8,4.77,-33.21,-33.37,0,*76
1485684121.66,20803,11.81,73834.5,4.75,-33.89,-34.13,0,*76
1485684122.88,20804,11.88,73834.5,4.75,-33.95,-34.13,0,*7C
1485684124.08,20805,11.81,73832.5,4.77,-33.83,-34.13,0,*78
1485684125.3,20806,11.88,73834.8,4.77,-33.89,-33.95,0,*78
1485684126.55,20807,11.81,73834.8,4.75,-33.55,-33.73,0,*72
1485684127.79,20808,11.88,73834.8,4.75,-33.95,-34.19,0,*7A
1485684129.08,20809,11.88,73834.5,4.75,-34.31,-34.53,0,*7C
1485684130.31,20810,11.88,73832.5,4.75,-34.71,-34.89,0,*77
1485684131.56,20811,11.88,73834.5,4.75,-34.53,-34.89,0,*76
1485684132.84,20812,11.88,73834.8,4.75,-34.65,-34.83,0,*7A
1485684134.07,20813,11.88,73836.3,4.75,-34.13,-34.47,0,*72
1485684135.35,20814,11.88,73838.3,4.75,-33.73,-33.77,0,*70
1485684136.63,20815,11.88,73834.0,4.75,-34.01,-34.35,0,*72
1485684137.9,20816,11.88,73838.8,4.75,-34.01,-34.19,0,*7F
1485684139.17,20817,11.88,73836.5,4.75,-34.19,-34.35,0,*79
1485684140.36,20818,11.88,73834.0,4.77,-33.95,-34.25,0,*76
1485684141.63,20819,11.88,73838.3,4.75,-33.61,-33.77,0,*7E
1485684142.91,20820,11.88,73836.3,4.75,-33.61,-33.73,0,*70
1485684144.19,20821,11.81,73834.3,4.75,-33.73,-34.01,0,*70
1485684145.41,20822,11.88,73834.5,4.77,-33.89,-34.25,0,*72
1485684146.6,20823,11.88,73834.8,4.77,-33.95,-34.25,0,*7E
1485684147.83,20824,11.81,73834.0,4.77,-33.49,-33.55,0,*78
1485684149.06,20825,11.88,73834.8,4.77,-33.37,-33.73,0,*74
1485684150.31,20826,11.88,73836.5,4.79,-33.67,-33.89,0,*79
1485684151.59,20827,11.81,73832.8,4.79,-34.01,-34.35,0,*7F
1485684152.82,20828,11.88,73836.5,4.77,-34.07,-34.31,0,*7C
1485684154.04,20829,11.88,73832.3,4.77,-34.07,-34.31,0,*7D
1485684155.28,20830,11.88,73832.5,4.77,-34.47,-34.65,0,*70
1485684156.48,20831,11.88,73832.8,4.77,-34.07,-34.25,0,*71
1485684157.73,20832,11.88,73832.0,4.77,-33.89,-34.31,0,*76
1485684158.93,20833,11.81,73834.8,4.77,-34.25,-34.47,0,*77
1485684160.13,20834,11.81,73832.8,4.77,-33.67,-33.95,0,*79
1485684161.36,20835,11.88,73834.5,4.79,-33.67,-33.83,0,*71
1485684162.64,20836,11.88,73836.0,4.79,-34.35,-34.53,0,*78
1485684163.9,20837,11.81,73834.3,4.79,-34.53,-34.77,0,*7F
1485684165.13,20838,11.81,73832.8,4.79,-34.59,-34.89,0,*7B
1485684166.38,20839,11.81,73832.8,4.79,-34.35,-34.59,0,*7D
1485684167.61,20840,11.88,73836.8,4.77,-34.41,-34.65,0,*71
1485684168.86,20841,11.81,73832.5,4.79,-34.19,-34.41,0,*75
1485684170.09,20842,11.88,73836.3,4.79,-34.41,-34.71,0,*78
1485684171.31,20843,11.88,73834.3,4.77,-34.07,-34.35,0,*75
1485684172.59,20844,11.88,73834.8,4.79,-33.49,-33.61,0,*77
1485684173.84,20845,11.88,73834.8,4.79,-33.67,-33.89,0,*7C
1485684175.1,20846,11.88,73840.5,4.79,-33.83,-34.01,0,*72
1485684176.35,20847,11.88,73838.5,4.79,-33.67,-33.89,0,*7E
1485684177.62,20848,11.88,73838.0,4.79,-34.19,-34.35,0,*7F
1485684178.9,20849,11.81,73832.0,4.79,-34.01,-34.35,0,*77
1485684180.15,20850,11.88,73836.0,4.81,-34.19,-34.53,0,*71
1485684181.41,20851,11.81,73834.3,4.79,-34.53,-34.77,0,*7F
1485684182.64,20852,11.88,73834.0,4.79,-34.59,-34.89,0,*77
1485684183.86,20853,11.81,73832.0,4.79,-34.25,-34.41,0,*79
1485684185.09,20854,11.81,73834.8,4.79,-34.59,-34.71,0,*76
1485684186.36,20855,11.88,73834.5,4.79,-34.19,-34.35,0,*73
1485684187.61,20856,11.88,73834.5,4.77,-34.65,-34.83,0,*78
1485684188.89,20857,11.81,73834.0,4.79,-34.19,-34.35,0,*71
1485684190.13,20858,11.88,73832.8,4.79,-33.89,-34.25,0,*71
1485684191.35,20859,11.88,73832.3,4.79,-34.25,-34.41,0,*73
1485684192.56,20860,11.88,73836.5,4.79,-34.25,-34.41,0,*79
1485684193.76,20861,11.81,73834.3,4.81,-34.41,-34.59,0,*74
1485684194.99,20862,11.81,73832.8,4.79,-34.41,-34.59,0,*70
1485684196.21,20863,11.88,73834.8,4.79,-34.41,-34.71,0,*7B
1485684197.46,20864,11.88,73832.5,4.79,-34.19,-34.41,0,*72
1485684198.68,20865,11.88,73834.0,4.79,-34.07,-34.25,0,*7E
1485684199.93,20866,11.81,73834.3,4.81,-34.01,-34.35,0,*7D
1485684201.18,20867,11.88,73834.0,4.79,-33.83,-34.19,0,*78
1485684202.41,20868,11.88,73834.3,4.79,-34.59,-34.77,0,*7F
1485684203.64,20869,11.81,73832.8,4.79,-34.07,-34.41,0,*70
1485684204.92,20870,11.81,73834.3,4.79,-34.35,-34.53,0,*7A
1485684206.16,20871,11.81,73832.0,4.79,-33.61,-33.83,0,*77
1485684207.39,20872,11.88,73836.3,4.79,-33.83,-34.07,0,*73
1485684208.65,20873,11.88,73834.8,4.79,-34.35,-34.77,0,*7F
1485684209.86,20874,11.88,73834.0,4.79,-34.25,-34.41,0,*7C
1485684211.12,20875,11.88,73836.3,4.79,-34.53,-34.71,0,*7F
1485684212.34,20876,11.81,73832.5,4.79,-34.89,-35.17,0,*7A
1485684213.57,20877,11.81,73834.5,4.79,-34.59,-34.89,0,*70
1485684214.83,20878,11.88,73832.8,4.79,-34.35,-34.59,0,*78
1485684216.05,20879,11.88,73834.0,4.79,-34.41,-34.59,0,*7A
1485684217.28,20880,11.88,73838.5,4.77,-34.31,-34.59,0,*75
1485684218.51,20881,11.81,73832.8,4.77,-34.41,-34.65,0,*7C
1485684219.77,20882,11.88,73832.8,4.79,-35.29,-35.53,0,*7A
1485684221.0,20883,11.88,73832.5,4.77,-35.01,-35.23,0,*78
1485684222.21,20884,11.88,73832.8,4.77,-34.77,-35.01,0,*7F
1485684223.42,20885,11.88,73836.5,4.77,-34.77,-35.01,0,*7E
1485684224.65,20886,11.88,73836.5,4.77,-34.47,-34.83,0,*75
1485684225.89,20887,11.88,73834.3,4.77,-34.47,-34.65,0,*7C
1485684227.12,20888,11.88,73836.0,4.77,-34.59,-34.83,0,*74
1485684228.38,20889,11.88,73834.3,4.77,-34.65,-34.95,0,*7D
1485684229.59,20890,11.81,73830.5,4.77,-34.25,-34.59,0,*71
1485684230.82,20891,11.81,73834.8,4.75,-34.47,-34.71,0,*7C
1485684232.08,20892,11.88,73832.8,4.75,-34.53,-34.77,0,*7C
1485684233.28,20893,11.88,73836.0,4.77,-34.25,-34.47,0,*7D
1485684234.54,20894,11.81,73834.0,4.75,-34.19,-34.47,0,*77
1485684235.77,20895,11.88,73832.3,4.77,-33.31,-33.67,0,*7C
1485684236.97,20896,11.88,73836.8,4.77,-34.25,-34.47,0,*78
1485684238.2,20897,11.88,73836.5,4.75,-34.47,-34.71,0,*7A
1485684239.45,20898,11.88,73834.3,4.75,-33.55,-33.77,0,*70
1485684240.71,20899,11.88,73834.3,4.77,-33.49,-33.73,0,*7A
1485684241.91,20900,11.88,73834.8,4.77,-34.25,-34.47,0,*76
1485684243.14,20901,11.81,73832.8,4.77,-34.41,-34.65,0,*75
1485684244.38,20902,11.81,73834.8,4.77,-34.25,-34.65,0,*74
1485684245.58,20903,11.88,73832.0,4.77,-34.41,-34.77,0,*74
1485684246.81,20904,11.88,73832.5,4.77,-35.01,-35.41,0,*72
1485684248.03,20905,11.88,73832.8,4.79,-34.25,-34.41,0,*7B
1485684249.3,20906,11.88,73836.3,4.79,-34.19,-34.35,0,*74
1485684250.55,20907,11.88,73838.3,4.79,-33.77,-34.07,0,*7B
1485684251.81,20908,11.88,73836.3,4.79,-33.67,-34.01,0,*73
1485684253.06,20909,11.88,73834.5,4.79,-33.83,-34.19,0,*71
1485684254.28,20910,11.88,73836.5,4.81,-33.77,-34.07,0,*7A
1485684255.51,20911,11.81,73834.8,4.79,-34.59,-34.89,0,*71
1485684256.75,20912,11.88,73832.8,4.79,-34.71,-35.13,0,*7A
1485684258.03,20913,11.88,73836.3,4.79,-34.35,-34.53,0,*7E
1485684259.25,20914,11.88,73834.0,4.79,-34.41,-34.59,0,*70
1485684260.49,20915,11.88,73838.3,4.79,-33.89,-34.25,0,*79
1485684261.75,20916,11.88,73834.8,4.79,-34.25,-34.53,0,*7A
1485684262.98,20917,11.88,73834.8,4.79,-34.59,-34.89,0,*77
1485684264.18,20918,11.88,73836.5,4.77,-34.41,-34.77,0,*7E
1485684265.46,20919,11.81,73834.3,4.75,-34.53,-34.83,0,*75
1485684266.69,20920,11.81,73832.0,4.77,-34.77,-35.07,0,*76
1485684267.92,20921,11.88,73834.5,4.77,-34.31,-34.59,0,*7F
1485684269.17,20922,11.81,73834.3,4.77,-34.83,-35.07,0,*7F
1485684270.41,20923,11.88,73834.8,4.75,-34.47,-34.71,0,*74
1485684271.64,20924,11.88,73834.0,4.77,-34.59,-34.83,0,*73
1485684272.84,20925,11.88,73834.3,4.77,-34.77,-35.17,0,*72
1485684274.1,20926,11.88,73834.0,4.77,-34.65,-34.95,0,*79
1485684275.33,20927,11.88,73836.3,4.79,-34.77,-35.17,0,*7E
1485684276.55,20928,11.88,73832.5,4.77,-35.01,-35.29,0,*72
1485684277.8,20929,11.81,73834.8,4.75,-35.29,-35.65,0,*73
1485684279.06,20930,11.81,73832.5,4.77,-34.65,-34.95,0,*7E
1485684280.3,20931,11.81,73832.5,4.75,-34.71,-35.01,0,*74
1485684281.58,20932,11.88,73834.5,4.75,-34.83,-35.07,0,*7C
1485684282.79,20933,11.81,73832.8,4.73,-35.01,-35.29,0,*7C
1485684284.0,20934,11.88,73832.5,4.73,-34.71,-35.01,0,*77
1485684285.21,20935,11.88,73832.5,4.73,-34.47,-34.71,0,*75
1485684286.44,20936,11.88,73836.0,4.73,-34.53,-34.71,0,*73
1485684287.69,20937,11.81,73830.3,4.73,-34.53,-34.83,0,*7F
1485684288.91,20938,11.88,73832.5,4.73,-34.35,-34.71,0,*7D
1485684290.12,20939,11.88,73834.8,4.73,-34.47,-34.71,0,*79
1485684291.37,20940,11.88,73834.5,4.73,-34.19,-34.53,0,*7C
1485684292.6,20941,11.88,73834.3,4.73,-34.19,-34.47,0,*78
1485684293.81,20942,11.88,73838.3,4.73,-34.47,-35.01,0,*73
1485684295.02,20943,11.81,73828.3,4.73,-35.01,-35.29,0,*7B
1485684296.28,20944,11.88,73836.8,4.75,-34.65,-35.01,0,*73
1485684297.5,20945,11.88,73834.8,4.73,-34.89,-35.23,0,*76
1485684298.73,20946,11.81,73832.0,4.73,-35.01,-35.41,0,*70
1485684299.95,20947,11.81,73830.8,4.73,-35.01,-35.29,0,*7F
1485684301.19,20948,11.88,73834.0,4.73,-34.53,-34.83,0,*77
1485684302.4,20949,11.88,73834.0,4.73,-34.89,-35.29,0,*70
1485684303.65,20950,11.88,73834.0,4.73,-34.83,-35.07,0,*7E
1485684304.85,20951,11.88,73834.3,4.73,-34.71,-34.89,0,*75
1485684306.07,20952,11.81,73832.5,4.73,-34.71,-35.01,0,*77
1485684307.3,20953,11.81,73830.5,4.69,-34.71,-35.07,0,*7B
1485684308.5,20954,11.88,73832.0,4.69,-34.41,-34.77,0,*79
1485684309.7,20955,11.81,73832.3,4.69,-34.89,-35.13,0,*7F
1485684310.9,20956,11.88,73832.5,4.69,-34.59,-34.89,0,*73
1485684312.13,20957,11.81,73832.3,4.69,-34.53,-34.89,0,*78
1485684313.33,20958,11.81,73832.3,4.69,-34.77,-35.17,0,*77
1485684314.56,20959,11.88,73832.5,4.69,-34.71,-35.07,0,*71
1485684315.82,20960,11.88,73834.3,4.67,-34.83,-35.17,0,*79
1485684317.08,20961,11.88,73836.5,4.67,-34.83,-35.01,0,*7F
1485684318.28,20962,11.88,73832.0,4.69,-34.59,-34.89,0,*74
1485684319.53,20963,11.88,73834.3,4.67,-34.31,-34.59,0,*78
1485684320.75,20964,11.88,73836.3,4.69,-33.95,-34.35,0,*72
1485684321.95,20965,11.88,73834.3,4.69,-34.07,-34.41,0,*7C
1485684323.17,20966,11.88,73834.8,4.69,-34.19,-34.59,0,*79
1485684324.37,20967,11.88,73834.8,4.69,-34.25,-34.71,0,*7D
1485684325.6,20968,11.88,73834.8,4.69,-34.25,-34.53,0,*72
1485684326.83,20969,11.81,73832.0,4.69,-34.77,-34.95,0,*7E
1485684328.03,20970,11.88,73834.5,4.69,-34.41,-34.59,0,*73
1485684329.28,20971,11.88,73832.8,4.67,-34.41,-34.65,0,*73
1485684330.51,20972,11.88,73836.0,4.69,-34.53,-34.71,0,*78
1485684331.72,20973,11.81,73832.8,4.69,-34.59,-34.89,0,*74
1485684332.93,20974,11.88,73836.3,4.69,-34.47,-34.77,0,*7D
1485684334.13,20975,11.88,73836.5,4.69,-34.41,-34.71,0,*7C
1485684335.41,20976,11.88,73834.8,4.67,-34.31,-34.65,0,*73
1485684336.61,20977,11.81,73832.8,4.69,-34.41,-34.71,0,*7E
1485684337.81,20978,11.81,73832.8,4.69,-34.25,-34.59,0,*79
1485684339.06,20979,11.88,73832.3,4.67,-34.41,-34.65,0,*7B
1485684340.26,20980,11.88,73838.3,4.69,-34.41,-34.89,0,*71
1485684341.48,20981,11.88,73834.0,4.69,-34.25,-34.53,0,*75
1485684342.71,20982,11.88,73834.5,4.69,-34.35,-34.59,0,*7D
1485684343.93,20983,11.88,73838.3,4.69,-34.19,-34.41,0,*7B
1485684345.16,20984,11.88,73834.5,4.73,-34.47,-34.65,0,*7A
1485684346.42,20985,11.88,73836.3,4.73,-34.31,-34.65,0,*7A
1485684347.66,20986,11.81,73834.8,4.69,-34.71,-34.95,0,*79
1485684348.89,20987,11.88,73834.5,4.69,-34.77,-34.95,0,*7E
1485684350.11,20988,11.88,73834.5,4.73,-33.89,-34.13,0,*72
1485684351.33,20989,11.88,73834.8,4.67,-34.07,-34.41,0,*70
1485684352.59,20990,11.81,73830.3,4.69,-34.19,-34.53,0,*7A
1485684353.8,20991,11.88,73834.5,4.69,-34.19,-34.41,0,*78
1485684355.01,20992,11.88,73834.5,4.69,-34.71,-34.89,0,*71
1485684356.21,20993,11.88,73832.0,4.69,-34.59,-34.89,0,*7A
1485684357.47,20994,11.88,73834.5,4.69,-34.35,-34.53,0,*70
1485684358.66,20995,11.88,73832.8,4.69,-34.25,-34.59,0,*7A
1485684359.89,20996,11.88,73836.8,4.69,-34.07,-34.35,0,*73
1485684361.09,20997,11.88,73834.3,4.69,-34.59,-34.77,0,*7F
1485684362.32,20998,11.81,73832.3,4.69,-34.25,-34.53,0,*7D
1485684363.52,20999,11.88,73834.3,4.69,-34.25,-34.47,0,*79
1485684364.75,21000,11.88,73832.3,4.69,-34.35,-34.71,0,*75
1485684365.98,21001,11.88,73832.5,4.69,-34.95,-35.29,0,*72
1485684367.21,21002,11.88,73832.3,4.69,-35.29,-35.65,0,*7F
1485684368.44,21003,11.88,73836.8,4.67,-34.77,-35.01,0,*78
1485684369.7,21004,11.81,73832.0,4.69,-35.07,-35.35,0,*70
1485684370.93,21005,11.88,73836.3,4.69,-34.77,-35.07,0,*76
1485684372.15,21006,11.88,73838.5,4.69,-35.13,-35.35,0,*77
1485684373.43,21007,11.88,73834.3,4.67,-34.65,-34.83,0,*74
1485684374.68,21008,11.88,73832.3,4.67,-34.65,-34.89,0,*71
1485684375.94,21009,11.88,73834.3,4.67,-34.83,-35.13,0,*7A
1485684377.17,21010,11.88,73836.0,4.69,-34.83,-35.01,0,*7F
1485684378.42,21011,11.81,73832.5,4.67,-35.17,-35.41,0,*78
1485684379.65,21012,11.88,73834.3,4.67,-34.77,-35.01,0,*78
1485684380.91,21013,11.88,73832.5,4.67,-34.77,-34.95,0,*75
1485684382.14,21014,11.88,73834.8,4.69,-34.53,-34.59,0,*7A
1485684383.4,21015,11.88,73832.3,4.67,-34.31,-34.47,0,*7E
1485684384.64,21016,11.88,73832.5,4.67,-34.59,-34.77,0,*70
1485684385.89,21017,11.88,73836.0,4.67,-34.83,-35.01,0,*76
1485684387.13,21018,11.88,73834.8,4.67,-34.77,-35.01,0,*72
1485684388.35,21019,11.88,73838.5,4.65,-34.83,-34.89,0,*7B
1485684389.58,21020,11.88,73834.3,4.65,-34.53,-34.71,0,*7B
1485684390.81,21021,11.88,73834.5,4.63,-34.71,-34.89,0,*7B
1485684392.04,21022,11.81,73830.8,4.65,-35.07,-35.29,0,*75
1485684393.28,21023,11.88,73832.8,4.63,-34.71,-34.71,0,*7E
1485684394.5,21024,11.88,73834.3,4.65,-34.47,-34.83,0,*77
1485684395.75,21025,11.88,73832.8,4.65,-34.83,-35.07,0,*73
1485684397.03,21026,11.88,73836.5,4.67,-34.65,-34.83,0,*77
1485684398.29,21027,11.88,73832.3,4.67,-34.47,-34.83,0,*76
1485684399.54,21028,11.88,73832.8,4.65,-34.65,-34.83,0,*7B
1485684400.77,21029,11.88,73834.8,4.67,-34.77,-35.01,0,*70
1485684401.99,21030,11.88,73834.3,4.65,-34.89,-35.07,0,*7D
1485684403.22,21031,11.88,73832.8,4.65,-34.53,-34.71,0,*7B
1485684404.44,21032,11.88,73834.8,4.65,-34.89,-35.07,0,*7F
1485684405.64,21033,11.88,73838.3,4.65,-34.71,-34.89,0,*7E
1485684406.89,21034,11.88,73834.8,4.65,-34.31,-34.53,0,*7A
1485684408.14,21035,11.88,73834.5,4.63,-34.07,-34.35,0,*78
1485684409.35,21036,11.88,73834.5,4.65,-34.47,-34.71,0,*79
1485684410.59,21037,11.88,73834.8,4.65,-34.83,-34.83,0,*7D
1485684411.82,21038,11.88,73834.8,4.65,-34.65,-34.89,0,*70
1485684413.04,21039,11.88,73832.8,4.65,-34.53,-34.89,0,*74
1485684414.24,21040,11.88,73832.8,4.65,-34.89,-35.17,0,*7B
1485684415.5,21041,11.88,73834.0,4.67,-34.83,-35.01,0,*75
1485684416.72,21042,11.81,73832.0,4.65,-34.47,-34.83,0,*77
1485684417.98,21043,11.88,73832.5,4.65,-34.35,-34.65,0,*7B
1485684419.17,21044,11.88,73832.3,4.65,-33.95,-34.13,0,*70
1485684420.39,21045,11.88,73834.8,4.65,-33.95,-34.31,0,*71
1485684421.61,21046,11.88,73834.3,4.67,-34.07,-34.41,0,*7B
1485684422.84,21047,11.88,73836.5,4.67,-34.13,-34.59,0,*76
1485684424.09,21048,11.88,73834.5,4.67,-34.01,-34.25,0,*71
1485684425.37,21049,11.88,73832.5,4.67,-34.31,-34.65,0,*77
1485684426.59,21050,11.81,73830.5,4.69,-34.01,-34.41,0,*74
1485684427.82,21051,11.88,73834.0,4.67,-33.83,-34.13,0,*71
1485684429.1,21052,11.88,73834.5,4.67,-34.65,-34.83,0,*74
1485684430.32,21053,11.88,73832.5,4.67,-34.25,-34.47,0,*79
1485684431.53,21054,11.88,73834.8,4.69,-34.59,-34.77,0,*78
1485684432.78,21055,11.88,73832.0,4.69,-34.35,-34.53,0,*75
1485684434.02,21056,11.88,73834.8,4.67,-34.13,-34.47,0,*79
1485684435.25,21057,11.88,73834.0,4.67,-34.13,-34.59,0,*77
1485684436.48,21058,11.81,73832.8,4.67,-34.13,-34.47,0,*77
1485684437.7,21059,11.88,73832.5,4.67,-34.41,-34.59,0,*7E
1485684438.92,21060,11.88,73832.5,4.69,-33.83,-34.19,0,*77
1485684440.14,21061,11.88,73832.3,4.69,-33.89,-34.07,0,*73
1485684441.39,21062,11.88,73834.3,4.67,-34.01,-34.25,0,*79
1485684442.59,21063,11.88,73830.8,4.73,-34.13,-34.47,0,*7A
1485684443.82,21064,11.88,73828.8,4.69,-34.01,-34.41,0,*73
1485684445.05,21065,11.88,73830.8,4.69,-34.71,-35.07,0,*76
1485684446.28,21066,11.88,73832.0,4.69,-34.71,-35.07,0,*75
1485684447.48,21067,11.88,73832.5,4.69,-34.59,-34.89,0,*79
1485684448.71,21068,11.88,73834.5,4.69,-34.35,-34.59,0,*71
1485684449.91,21069,11.88,73836.5,4.69,-34.77,-35.17,0,*7D
1485684451.17,21070,11.88,73834.8,4.69,-34.65,-35.07,0,*77
1485684452.37,21071,11.88,73838.0,4.69,-34.89,-35.29,0,*78
1485684453.63,21072,11.88,73832.3,4.67,-34.95,-35.13,0,*71
1485684454.88,21073,11.88,73836.3,4.67,-34.31,-34.77,0,*7D
1485684456.1,21074,11.88,73834.3,4.67,-34.25,-34.41,0,*7A
1485684457.29,21075,11.88,73836.8,4.69,-33.95,-34.25,0,*7B
1485684458.51,21076,11.88,73834.0,4.69,-33.83,-34.19,0,*70
1485684459.76,21077,11.88,73832.0,4.67,-33.89,-34.13,0,*7F
1485684461.0,21078,11.88,73834.8,4.73,-33.89,-34.19,0,*7F
1485684462.23,21079,11.88,73830.5,4.73,-34.13,-34.53,0,*74
1485684463.48,21080,11.88,73834.8,4.73,-33.73,-33.89,0,*73
1485684464.7,21081,11.88,73832.8,4.73,-33.95,-34.31,0,*7E
1485684465.92,21082,11.88,73836.3,4.73,-34.13,-34.35,0,*70
1485684467.17,21083,11.88,73834.3,4.73,-33.73,-33.89,0,*70
1485684468.39,21084,11.88,73832.3,4.73,-33.95,-34.31,0,*7B
1485684469.64,21085,11.88,73832.3,4.73,-34.19,-34.53,0,*7D
1485684470.9,21086,11.88,73832.3,4.73,-34.31,-34.65,0,*71
1485684472.13,21087,11.81,73828.0,4.73,-34.83,-35.13,0,*79
1485684473.36,21088,11.88,73832.8,4.73,-34.71,-35.23,0,*78
1485684474.59,21089,11.88,73836.5,4.73,-34.65,-34.89,0,*7D
1485684475.82,21090,11.88,73832.8,4.73,-34.71,-34.83,0,*7A
1485684477.05,21091,11.88,73834.3,4.73,-34.71,-35.07,0,*76
1485684478.3,21092,11.88,73836.0,4.73,-34.53,-34.83,0,*78
1485684479.55,21093,11.88,73834.3,4.73,-34.31,-34.65,0,*75
1485684480.81,21094,11.88,73832.8,4.73,-34.19,-34.53,0,*7D
1485684482.06,21095,11.88,73834.5,4.73,-34.65,-35.23,0,*71
1485684483.31,21096,11.88,73832.0,4.73,-35.07,-35.41,0,*73
1485684484.54,21097,11.88,73834.8,4.69,-34.77,-35.07,0,*7D
1485684485.8,21098,11.88,73836.5,4.69,-34.35,-34.53,0,*74
1485684487.03,21099,11.88,73834.8,4.69,-34.59,-34.95,0,*75
1485684488.28,21100,11.88,73836.3,4.69,-34.01,-34.35,0,*73
1485684489.52,21101,11.88,73832.8,4.73,-33.89,-34.19,0,*70
1485684490.76,21102,11.88,73834.5,4.73,-34.01,-34.35,0,*7A
1485684491.98,21103,11.88,73832.0,4.73,-33.95,-34.35,0,*71
1485684493.2,21104,11.88,73832.0,4.73,-34.13,-34.35,0,*7F
1485684494.41,21105,11.88,73834.0,4.73,-34.13,-34.47,0,*7B
1485684495.61,21106,11.88,73834.0,4.73,-34.13,-34.47,0,*78
1485684496.84,21107,11.88,73834.8,4.73,-33.73,-33.95,0,*70
1485684498.09,21108,11.88,73832.5,4.73,-34.35,-34.53,0,*77
1485684499.32,21109,11.88,73832.3,4.73,-34.53,-34.71,0,*76
1485684500.56,21110,11.88,73834.5,4.73,-34.47,-34.65,0,*7E
1485684501.76,21111,11.88,73836.3,4.73,-34.13,-34.47,0,*7E